Regional Weather Roundup
Issued by NWS

Home | Current Version | Previous Version | Text Only | Print | Product List | Glossary Off
Versions: 1 2 3 4 5 6 7 8 9 10 11 12 13 14 15 16 17 18 19 20 21 22 23 24 25 26 27 28 29 30 31 32 33 34 35 36 37 38 39 40 41 42 43 44 45 46 47 48 49 50

000
ASUS43 KBIS 310520
RWRND

NORTH DAKOTA REGIONAL WEATHER ROUNDUP
NATIONAL WEATHER SERVICE BISMARCK ND
1100 PM CST FRI JAN 30 2015

NOTE: "FAIR" INDICATES FEW OR NO CLOUDS BELOW 12,000 FEET WITH NO
SIGNIFICANT WEATHER AND/OR OBSTRUCTIONS TO VISIBILITY.


NDZ001>003-009>011-017-310600-
NORTHWEST NORTH DAKOTA

CITY           SKY/WX    TMP DP  RH WIND       PRES   REMARKS
WILLISTON      CLOUDY    23  21  92 NE12      30.21R FOG     WCI  12
MINOT          CLOUDY    24  19  81 N12       30.22R WCI  13
MINOT AFB      CLOUDY    23  22  99 NE12      30.22S WCI  11
$$

NDZ018>021-031>035-040>046-310600-
SOUTHWEST NORTH DAKOTA

CITY           SKY/WX    TMP DP  RH WIND       PRES   REMARKS
BISMARCK       CLOUDY    28  24  85 NE8       30.18F WCI  20
DICKINSON      CLEAR     27  22  81 NE7       30.12S WCI  19
GARRISON         N/A     24  22  91 N8        30.19S WCI  15
HETTINGER ARPT CLEAR     22  19  89 CALM      30.14S
$$

NDZ004>008-012>016-024-026-027-054-310600-
NORTHEAST NORTH DAKOTA

CITY           SKY/WX    TMP DP  RH WIND       PRES   REMARKS
GRAND FORKS    CLOUDY    21  15  78 N22       30.22R WCI   5
GRND FRKS AFB  DRIZZLE   21  16  79 N13       30.22R WCI   9
DEVILS LAKE    CLOUDY    19  12  73 N15       30.21R WCI   5
$$

NDZ022-023-025-028>030-036>039-047>053-310600-
SOUTHEAST NORTH DAKOTA

CITY           SKY/WX    TMP DP  RH WIND       PRES   REMARKS
FARGO          CLOUDY    27  22  81 N17       30.17R WCI  14
JAMESTOWN      CLOUDY    25  22  88 N15       30.17S WCI  13
$$



USA.gov is the U.S. government's official web portal to all federal, state and local government web resources and services.